Jackpot

Texas Poker Multi Jackpot System

Kini Telah hadir Jackpot SUPER ROYAL FLUSH

Kini Telah hadir Jackpot 2000 (khusus table VIP keatas).

Ikutilah global jackpot yang tersedia di system kami, dengan system jackpot terbaru dan pertama di indonesia, anda dapat membeli jackpot dengan harga 100 rupiah saja dan menangkan hadiahnya hingga puluhan juta rupiah.

Jackpot bukanlah suatu keharusan untuk dibeli, namun kami memberikan suatu fitur tambahan untuk member tercinta dari www.genkmotor.com.

Terdapat tiga pilihan harga jackpot yang bisa anda beli yaitu :100,500,1000 dan 2000(khusus table VIP Keatas) rupiah.

Hadiah dari Multi jackpot system www.genkmotor.com

  1. full house x 10 harga jackpot yang anda beli.
      (contoh:anda membeli 1000 maka:1000 X10 = 10.000)
  2. four of kind x 250 harga jackpot yang anda beli
      (contoh:anda membeli 1000 maka:1000 X250 = 250.000)
  3. Straight flush x 1200
      (contoh:anda membeli 1000 maka:1000 X1200 = 1.200.000)
  4. Royal flush x 10000 harga jackpot yang anda beli
      (contoh:anda membeli 1000 maka:1000 X10000 = 10.000.000)
  5. SUPER ROYAL FLUSH x 30000 harga jackpot yang anda beli
      (contoh:anda membeli 1000 maka:1000 X30000 = 30.000.000)

Kondisi kartu

  1. full house adalah kondisi kartu dimana kartu anda dan kartu tengah dengan total 7 kartu bisa mendapatkan nilai 5 kartu dengan kombinasi 1 tris(three of kind) dan 1 pair, contoh 3 kartu 10 dan 2 kartu 5
  2. Four of kind adalah kondisi kartu dimana kartu anda dan kartu tengah dengan total 7 kartu bisa mendapatkan nilai 5 kartu dengan kombinasi 4 kartu yang sama jumlah dan 1 kartu apapun juga contoh anda mendapatkan 4 buah kartu angka 3 dan 1 kartu apapun.
  3. Staright flush adalah kondisi kartu dimana kartu anda dan kartu tengah dengan total 7 kartu bisa mendapatkan nilai 5 kartu dengan kombinasi seri / staright dengan kembang yang sama contoh : urutan kartu dari angka 5, 6, 7, 8 , 9 10 dengan kembang yg sama misalnya as hati
  4. Royal flush adalah kondisi kartu dimana kartu anda dan kartu tengah dengan total 7 kartu bisa mendapatkan nilai 5 kartu dengan kombinasi seri / staright dengan kembang yang sama tetapi kartu tersebut haruslah dimulai dari 10. contoh 10, Queen, Jack, King dan aces dengan kembang yang sama
  5. Super Royal flush adalah kondisi kartu dimana Kedua kartu anda digabung dengan 3 kartu pertama meja haruslah royal flush. contoh kartu anda 10,Queen kembang sama dan 3 kartu pertama meja adalah Jack, King dan aces dengan kembang yang sama

Demikian adalah penjelasan dari Multi Jackpot www.genkmotor.com terima kasih dan selamat bermain salam hoki dari kami

Texas Poker Jackpot Winner

TOP SUPER ROYAL FLUSH
No.TanggalNamaPriceWin
120/01 13:59WALU77Super Royal flush30,000,000
220/01 12:18AAGBALAG91Super Royal flush15,000,000
320/01 11:43TRIWALUYO9Super Royal flush15,000,000
420/01 06:38HENKEPSuper Royal flush15,000,000
520/01 01:43S17331ZGIAI0ZK9Super Royal flush6,000,000
TOP ROYAL FLUSH
No.TanggalNamaPriceWin
120/01 14:09M4N444Royal flush5,000,000
220/01 14:00LAURENS38Royal flush2,000,000
320/01 13:37ASTRALUXRoyal flush20,000,000
420/01 13:16TARKITRoyal flush10,000,000
520/01 13:11PARANGGI28Royal flush5,000,000
TOP STRAIGHT FLUSH
No.TanggalNamaPriceWin
120/01 14:19BENJOT99Straight Flush120,000
220/01 14:19CRUSADERZStraight Flush240,000
320/01 14:18ONG_YAKONGStraight Flush600,000
420/01 14:15NAFIRZA99Straight Flush240,000
520/01 14:15SIIRENGStraight Flush240,000
LATEST JACKPOT
No.TanggalNamaPriceWin
120/01 14:19MINHENFull House10,000
220/01 14:19AS_AS10Full House1,000
320/01 14:19FAMOUS888Full House1,000
420/01 14:19RISANG71Full House10,000
520/01 14:19CPOWER99Full House2,000
620/01 14:19RASA444Full House500
720/01 14:19EL1N1994Four Of A Kind50,000
820/01 14:19MUDA85Full House5,000
920/01 14:19E3337BC3Full House2,000
1020/01 14:19QCLIKSFull House20,000
1120/01 14:19CRAYON888Full House2,000
1220/01 14:19RIBKA03Full House2,000
1320/01 14:19JHN77Full House2,000
1420/01 14:19RAMADHONDFull House2,000
1520/01 14:19TEMPIX66Full House1,000
1620/01 14:19KINGCEME14Full House1,000
1720/01 14:19BENJOT99Straight Flush120,000
1820/01 14:19BOSQ08Full House5,000
1920/01 14:19HOOCKYY13Full House5,000
2020/01 14:19SIR_JHONFull House10,000
2120/01 14:19BAC0BF10Full House10,000
2220/01 14:19SIKUMISZFull House1,000
2320/01 14:19MAFIAHK477Full House20,000
2420/01 14:19M4S0K10Full House1,000
2520/01 14:19ESYA88Full House2,000
2620/01 14:19OLIVIA49Full House5,000
2720/01 14:19CRUSADERZStraight Flush240,000
2820/01 14:19ZHAAFIRAH7Full House5,000
2920/01 14:19R4MA88Full House1,000
3020/01 14:19KENTER11Full House1,000
3120/01 14:19DENPOM67Full House2,000
3220/01 14:19EKAYKAYAFull House5,000
3320/01 14:19BANGAH77Full House10,000
3420/01 14:19NUNUKBABEFull House10,000
3520/01 14:19JW31Full House10,000
3620/01 14:19MANGDUT88Full House10,000
3720/01 14:19D3W4555Full House2,000
3820/01 14:19ATIN10Full House2,000
3920/01 14:19NGUTERSOLOFull House10,000
4020/01 14:19KALIBRIFull House1,000
4120/01 14:19FERIPOKER0Full House5,000
4220/01 14:19FIEZTA01Full House1,000
4320/01 14:19JGL2H0FWLMFull House2,000
4420/01 14:19RAJ07Full House2,000
4520/01 14:19S4B3Full House2,000
4620/01 14:19SZQTQU0BZSFull House1,000
4720/01 14:19DANEIL26Full House5,000
4820/01 14:19RENDI845Four Of A Kind25,000
4920/01 14:19FAHMIKOPETFull House10,000
5020/01 14:19RAHQUA4Full House5,000

Domino Multi Jackpot System

Ikutilah global jackpot yang tersedia di system kami, dengan system jackpot terbaru dan pertama di indonesia, anda dapat membeli jackpot dengan harga 100 rupiah saja dan menangkan hadiahnya hingga puluhan juta rupiah.

Jackpot bukanlah suatu keharusan untuk dibeli, namun kami memberikan suatu fitur tambahan untuk member tercinta dari www.genkmotor.com.

Terdapat tiga pilihan harga jackpot yang bisa anda beli yaitu :100,500 dan 1000 rupiah.

Hadiah dari Multi jackpot system www.genkmotor.com

  1. Murni Kecil x 50 harga jackpot yang anda beli.
      (contoh:anda membeli 1000 maka:1000 X 50 = 50.000)
  2. Murni Besar x 50 harga jackpot yang anda beli
      (contoh:anda membeli 1000 maka:1000 X 50 = 50.000)
  3. BALAK x 100 harga jackpot yang anda beli
      (contoh:anda membeli 1000 maka:1000 X 100 = 100.000)
  4. ENAM DEWA x 6666 harga jackpot yang anda beli
      (contoh:anda membeli 1000 maka:1000 X 6666 = 6.666.000)

Demikian adalah penjelasan dari Multi Jackpot www.genkmotor.com terima kasih dan selamat bermain salam hoki dari kami

Domino Jackpot Winner

TOP ENAM DEWA
No.TanggalNamaPriceWin
120/01 14:08SANGENYAmurni enam3,333,000
220/01 12:17TONI028murni enam3,333,000
320/01 10:14WADDUT99murni enam6,666,000
420/01 09:22KATROK009murni enam6,666,000
520/01 08:36ACIL66murni enam6,666,000
TOP BALAK
No.TanggalNamaPriceWin
120/01 14:18ONI92T1J67balak50,000
220/01 14:15AQILLA_88balak100,000
320/01 14:13MANMAN40balak100,000
420/01 14:12IFUL30FINbalak100,000
520/01 14:10MAN135balak100,000
LATEST JACKPOT
No.TanggalNamaPriceWin
120/01 14:19C3AF4B12lucky9925,000
220/01 14:19KENTIAUmurni kecil50,000
320/01 14:18Z4W1Rlucky9950,000
420/01 14:18ACIL66murni besar50,000
520/01 14:18ONI92T1J67balak50,000
620/01 14:17AJISAPUROmurni kecil50,000
720/01 14:17BUIBARRASmurni kecil25,000
820/01 14:17KINGHASH01murni besar50,000
920/01 14:17SIBENGmurni kecil50,000
1020/01 14:17DARKZLIU91murni besar50,000
1120/01 14:16DANCUKKK05murni kecil50,000
1220/01 14:16CAPSA37murni kecil5,000
1320/01 14:15BRAD03murni besar25,000
1420/01 14:15AQILLA_88balak100,000
1520/01 14:15TIO14murni besar25,000
1620/01 14:15RICKY1395murni kecil50,000
1720/01 14:14OB1116murni besar50,000
1820/01 14:13MANMAN40balak100,000
1920/01 14:13JHUANDlucky9925,000
2020/01 14:13ASIX66murni besar5,000
2120/01 14:12MCHOBOS11murni besar25,000
2220/01 14:12NCEK121murni besar5,000
2320/01 14:12IFUL30FINbalak100,000
2420/01 14:11ARRY21murni kecil25,000
2520/01 14:11N6ACENGmurni kecil5,000
2620/01 14:10KINGHASH01murni kecil50,000
2720/01 14:10LUWUNGECAHmurni besar5,000
2820/01 14:10BOPENGGGmurni besar25,000
2920/01 14:10MAN135balak100,000
3020/01 14:09AKJ99murni kecil50,000
3120/01 14:09GASOMlucky9910,000
3220/01 14:09DULDUL123murni besar50,000
3320/01 14:09M4NKENTULlucky9910,000
3420/01 14:09OCWR4Y4AV4murni besar5,000
3520/01 14:08ALENCIKmurni kecil50,000
3620/01 14:08SANGENYAmurni enam3,333,000
3720/01 14:06MAT164murni kecil25,000
3820/01 14:06RATTIH99murni kecil25,000
3920/01 14:06JAMESB009balak50,000
4020/01 14:06MHI10693murni besar50,000
4120/01 14:06GATOK85balak50,000
4220/01 14:06TAIWO24lucky9950,000
4320/01 14:05HECHALUKmurni kecil25,000
4420/01 14:05EKO508murni besar50,000
4520/01 14:04HALF998balak50,000
4620/01 14:04AWAYGmurni besar5,000
4720/01 14:04GUSNAR86murni besar5,000
4820/01 14:04AZMI97murni kecil25,000
4920/01 14:03IFUL30FINmurni kecil50,000
5020/01 14:03VHY86murni besar50,000

Ceme Multi Jackpot System

Jackpot dilihat dari gabungan kartu pemain dengan kartu bandar. Bandar harus membeli jackpot sebanyak jumlah player yang sedang duduk. Sebagai contoh bila terdapat 3 pemain duduk bermain, dan bandar memutuskan untuk membeli jackpot Rp 1.000, maka pada periode tersebut bandar akan membeli jackpot sebanyak 3xRp1.000 = Rp3.000.

Jackpot bukanlah suatu keharusan untuk dibeli, namun kami memberikan suatu fitur tambahan untuk member tercinta dari www.genkmotor.com.

Terdapat tiga pilihan harga jackpot yang bisa anda beli yaitu :100,500 dan 1000 rupiah.

Hadiah dari Multi jackpot system www.genkmotor.com

  1. Murni Kecil x 50 harga jackpot yang anda beli.
      (contoh:anda membeli 1000 maka:1000 X 50 = 50.000)
  2. Murni Besar x 50 harga jackpot yang anda beli
      (contoh:anda membeli 1000 maka:1000 X 50 = 50.000)
  3. BALAK x 200 harga jackpot yang anda beli
      (contoh:anda membeli 1000 maka:1000 X 200 = 200.000)
  4. ENAM DEWA x 6666 harga jackpot yang anda beli
      (contoh:anda membeli 1000 maka:1000 X 6666 = 6.666.000)

Demikian adalah penjelasan dari Multi Jackpot www.genkmotor.com terima kasih dan selamat bermain salam hoki dari kami

Ceme Jackpot Winner

TOP ENAM DEWA
No.TanggalNamaPriceWin
120/01 14:1301SISKAmurni enam6,666,000
220/01 14:13J3NI4Rmurni enam6,666,000
320/01 14:08UDIN171murni enam6,666,000
420/01 13:54PIKACU_221murni enam6,666,000
520/01 13:49CINCO2murni enam3,333,000
TOP BALAK
No.TanggalNamaPriceWin
120/01 14:19RALL21balak200,000
220/01 14:18AGUSPUIbalak200,000
320/01 14:18PEYOT12balak100,000
420/01 14:18DYPAbalak200,000
520/01 14:17PANAD0LLbalak200,000
LATEST JACKPOT
No.TanggalNamaPriceWin
120/01 14:19DEV3455murni kecil5,000
220/01 14:19PANAD0LLmurni kecil50,000
320/01 14:19SHENZ27murni kecil50,000
420/01 14:19POPOWOWmurni besar5,000
520/01 14:19VH0GTSDMPPmurni besar50,000
620/01 14:19VH0GTSDMPPmurni besar50,000
720/01 14:19FAMATImurni kecil50,000
820/01 14:19FAFISTAmurni kecil25,000
920/01 14:19RALL21balak200,000
1020/01 14:18AGUSPUIbalak200,000
1120/01 14:18RINGO_99murni besar50,000
1220/01 14:18PEYOT12balak100,000
1320/01 14:18AJIBUNT86murni kecil50,000
1420/01 14:18MR021177murni besar50,000
1520/01 14:18LUK45UK1Emurni kecil50,000
1620/01 14:18IKEH57murni kecil5,000
1720/01 14:18DYPAbalak200,000
1820/01 14:18SRTLAHIEM231murni kecil50,000
1920/01 14:18SPREI1991murni kecil50,000
2020/01 14:18BARLENGmurni kecil25,000
2120/01 14:18SUPAR_12murni kecil25,000
2220/01 14:17PANAD0LLbalak200,000
2320/01 14:17SHENZ27balak200,000
2420/01 14:17SYAH8888murni besar25,000
2520/01 14:17ALFI1111murni kecil25,000
2620/01 14:17JELEMOmurni kecil50,000
2720/01 14:17BONY123murni kecil50,000
2820/01 14:17SYAH8888murni kecil25,000
2920/01 14:17MIKO024murni kecil25,000
3020/01 14:17PHOLTAKS07balak20,000
3120/01 14:16F4TIKHmurni kecil50,000
3220/01 14:16KIB4R378murni kecil50,000
3320/01 14:16PANAD0LLmurni besar50,000
3420/01 14:16D1867murni kecil50,000
3520/01 14:16D1867murni kecil50,000
3620/01 14:16JEBRAKSmurni besar5,000
3720/01 14:16UFF00murni besar5,000
3820/01 14:16KEWOY21murni kecil50,000
3920/01 14:16ROHMANA7balak200,000
4020/01 14:16SKYN3T83murni kecil50,000
4120/01 14:16FIKA558murni kecil25,000
4220/01 14:16BEO90balak100,000
4320/01 14:15KAPIOK12murni kecil25,000
4420/01 14:15GOPER77murni kecil50,000
4520/01 14:15PASIOPS17murni besar25,000
4620/01 14:15MHORASA71murni besar50,000
4720/01 14:15SKYN3T83murni besar50,000
4820/01 14:15SPNYA1234murni besar25,000
4920/01 14:15FRAGILE222murni kecil50,000
5020/01 14:15SAIFUL16murni kecil50,000